User: anonymous   Login
Location: Unspecified
(0.0000°N, 0.0000°E)
Time: 08:27:11
(UTC+00:00)
Language:

AUBIESAT-1 - Orbit

View from above orbital plane
View from above orbital plane
View from above satellite
View from above satellite

Ground track
Ground track

The orbit data is extracted from the following two-line orbital elements,

1 37854U 11061E   17147.89573835 +.00001930 +00000-0 +11056-3 0  9993
2 37854 101.7061 011.2038 0167836 135.0165 226.4783 15.04003351303439
Epoch (UTC): 27 May 2017 21:29:51
Eccentricity: 0.0167836
inclination: 101.7061°
perigee height: 438 km
apogee height: 671 km
right ascension of ascending node: 11.2038°
argument of perigee: 135.0165°
revolutions per day: 15.04003351
mean anomaly at epoch: 226.4783°
orbit number at epoch: 30343

The dashed part of the orbit path shows where the satellite is in the earth's shadow,  

DLR